カタログに戻る

PICARD

運用中科学SSO
NORAD 36598·PAYLOAD·🇫🇷 France

打ち上げ Jun 15, 2010 から Dombarovsky

Loading…

次のパス (今後24時間)

TLE

最新Source: Space-Track

元期: Sep 14, 2026, 12:23 UTC

1 36598U 10028A   26257.51613362  .00000171  00000-0  52589-4 0  9993
2 36598  98.2777  89.1319 0001197  87.4261 272.7072 14.52740446860402

AllMySatでPICARDをリアルタイム追跡

Download on the App Store